FW4365 Weather Reports


time (UTC)temp
C
wind
direction
speed
KPH
gust
KPH
rain 1hr
cm
rain 24hr
cm
rain mn
cm
humidity
%
barometer
mb
20260507070030 13 146 4.8 14.5 0.03 0.69 0.33 88 1012.1
20260507064510 13 86 6.4 12.9 0.03 0.69 0.33 90 1011.4
20260507063107 13 117 3.2 6.4 0.08 0.69 0.33 90 1011.7
20260507061529 13 122 3.2 9.7 0.20 0.69 0.33 89 1011.7
20260507060118 13 130 3.2 9.7 0.30 0.66 0.30 89 1012.0
20260507054526 13 146 4.8 12.9 0.30 0.66 0.30 87 1012.0
20260507053118 13 163 9.7 16.1 0.25 0.61 0.25 85 1012.1
20260507051535 15 162 6.4 19.3 0.10 0.46 0.10 82 1012.2
20260507050025 16 142 8.0 16.1 0.00 0.36 0.00 77 1011.5
20260507044610 16 167 6.4 14.5 0.00 0.36 0.00 76 1011.4
20260507043021 17 83 8.0 16.1 0.00 0.36 0.00 73 1011.8
20260507041601 17 113 4.8 14.5 0.00 0.36 0.00 71 1010.9
20260507040004 17 194 9.7 20.9 0.00 0.36 0.36 72 1010.7
20260507034616 17 158 8.0 14.5 0.00 0.36 0.36 74 1011.1
20260507033040 18 106 3.2 11.3 0.00 0.36 0.36 77 1011.0
20260507031502 18 76 1.6 6.4 0.00 0.36 0.36 73 1010.7
20260507030051 18 69 1.6 14.5 0.00 0.36 0.36 73 1010.5
20260507024636 19 149 1.6 8.0 0.00 0.36 0.36 77 1010.5
20260507023104 19 149 6.4 16.1 0.00 0.36 0.36 77 1010.3
20260507021632 19 56 1.6 4.8 0.00 0.36 0.36 81 1010.2
20260507020057 19 55 0.0 1.6 0.00 0.36 0.36 80 1010.0
20260507014632 20 55 0.0 4.8 0.00 0.36 0.36 79 1010.2
20260507013050 20 55 0.0 4.8 0.00 0.36 0.36 79 1010.2
20260507011516 20 70 0.0 3.2 0.00 0.36 0.36 79 1010.2
20260507010100 20 70 0.0 4.8 0.00 0.36 0.36 79 1010.1
20260507004518 20 76 0.0 6.4 0.00 0.36 0.36 78 1009.8
20260507003117 20 58 0.0 4.8 0.00 0.36 0.36 78 1010.0
20260507001603 20 52 1.6 9.7 0.00 0.36 0.36 77 1009.9
20260507000129 20 52 3.2 8.0 0.00 0.36 0.36 77 1009.8
20260506234552 20 45 3.2 11.3 0.00 0.36 0.36 77 1009.4
20260506233006 20 36 1.6 11.3 0.00 0.36 0.36 76 1009.3
20260506231559 21 48 3.2 9.7 0.00 0.36 0.36 76 1009.3
20260506230052 21 37 3.2 9.7 0.00 0.36 0.36 75 1009.1
20260506224632 21 27 4.8 9.7 0.00 0.36 0.36 75 1009.2
20260506221635 21 50 1.6 9.7 0.00 0.36 0.36 74 1009.3
20260506220050 21 35 3.2 9.7 0.00 0.36 0.36 73 1009.1
20260506214507 22 41 1.6 11.3 0.00 0.36 0.36 73 1009.0
20260506213106 21 56 4.8 12.9 0.00 0.36 0.36 72 1009.0
20260506211529 22 57 3.2 11.3 0.00 0.36 0.36 72 1009.0
20260506210007 21 30 3.2 12.9 0.00 0.36 0.36 73 1008.7
20260506204603 21 33 4.8 12.9 0.00 0.36 0.36 72 1008.8
20260506203019 22 83 3.2 12.9 0.00 0.36 0.36 71 1008.7
20260506201602 22 63 3.2 17.7 0.00 0.36 0.36 72 1008.6
20260506200015 21 75 3.2 12.9 0.00 0.36 0.36 72 1008.6
20260506194614 21 53 4.8 16.1 0.00 0.36 0.36 73 1008.7
20260506193033 21 45 4.8 16.1 0.00 0.36 0.36 74 1008.7
20260506191613 21 48 6.4 16.1 0.00 0.36 0.36 75 1008.9
20260506190051 20 68 6.4 17.7 0.00 0.36 0.36 77 1009.2
20260506184633 20 62 4.8 16.1 0.00 0.36 0.36 77 1009.5
20260506183048 19 66 4.8 16.1 0.00 0.36 0.36 78 1009.6
20260506181504 19 60 11.3 22.5 0.03 0.36 0.36 79 1009.8
20260506180055 19 84 6.4 24.1 0.03 0.36 0.36 81 1010.0
20260506174511 18 91 6.4 20.9 0.03 0.36 0.36 82 1009.9
20260506173110 18 41 8.0 29.0 0.03 0.36 0.36 84 1010.0
20260506171559 18 54 6.4 17.7 0.00 0.33 0.33 85 1009.9
20260506170007 17 43 3.2 17.7 0.00 0.33 0.33 86 1010.1
20260506164625 17 39 4.8 16.1 0.00 0.33 0.33 87 1010.3
20260506163014 17 41 4.8 17.7 0.00 0.33 0.33 87 1010.4
20260506161608 17 70 3.2 16.1 0.00 0.33 0.33 88 1010.5
20260506160034 16 45 4.8 16.1 0.08 0.33 0.33 87 1010.7
20260506154625 17 3 4.8 12.9 0.18 0.33 0.33 88 1010.6
20260506153035 16 71 1.6 12.9 0.20 0.33 0.33 87 1010.8
20260506151628 16 48 6.4 17.7 0.25 0.33 0.33 86 1011.3
20260506150048 16 351 6.4 14.5 0.23 0.25 0.25 84 1011.4
20260506144632 17 26 3.2 14.5 0.13 0.15 0.15 83 1011.4
20260506143040 17 88 4.8 14.5 0.13 0.13 0.13 82 1011.4
20260506141631 17 22 4.8 12.9 0.08 0.08 0.08 80 1011.3
20260506140049 17 35 3.2 12.9 0.03 0.03 0.03 79 1011.6
20260506134512 18 74 4.8 12.9 0.00 0.00 0.00 77 1011.9
20260506133107 18 60 1.6 11.3 0.00 0.00 0.00 75 1011.4
20260506131511 18 46 6.4 14.5 0.00 0.00 0.00 74 1011.4
20260506124517 18 26 6.4 14.5 0.00 0.00 0.00 75 1011.2
20260506123101 18 15 6.4 17.7 0.00 0.00 0.00 75 1011.6
20260506121523 18 81 1.6 14.5 0.00 0.00 0.00 73 1011.7
20260506120113 18 33 4.8 16.1 0.00 0.00 0.00 73 1011.5
20260506114533 18 29 4.8 14.5 0.00 0.00 0.00 73 1011.3
20260506113129 19 1 4.8 11.3 0.00 0.00 0.00 72 1011.1
20260506111548 18 49 4.8 14.5 0.00 0.00 0.00 74 1011.0
20260506110008 18 23 4.8 19.3 0.00 0.00 0.00 74 1010.9
20260506104611 18 16 4.8 14.5 0.00 0.00 0.00 75 1010.8
20260506103017 18 50 4.8 14.5 0.00 0.00 0.00 75 1010.8
20260506101553 18 30 1.6 19.3 0.00 0.00 0.00 75 1010.6
20260506100012 18 6 3.2 17.7 0.00 0.00 0.00 76 1010.7
20260506094609 17 353 3.2 11.3 0.00 0.00 0.00 77 1010.7
20260506093022 17 42 4.8 11.3 0.00 0.00 0.00 78 1010.7
20260506091613 17 24 0.0 9.7 0.00 0.00 0.00 78 1010.8
20260506090029 17 37 0.0 3.2 0.00 0.00 0.00 76 1011.0
20260506084636 18 51 0.0 8.0 0.00 0.00 0.00 75 1011.0
20260506083023 18 15 1.6 9.7 0.00 0.00 0.00 73 1010.8
20260506081620 19 37 1.6 17.7 0.00 0.00 0.00 71 1010.7
20260506073043 18 324 1.6 11.3 0.00 0.00 0.00 73 1011.0
20260506071634 18 34 0.0 9.7 0.00 0.00 0.00 74 1011.1